Presure
165 156 134 173 161 134 132 130 145 128 149 134 140 114 150 149 130 143 134 129 127 138 128 138 136 140 143 142 141 129 137 154 126 140 117 143 136 142 140 153 145 158 147
162 173 142 141 144 143 144 139 158 127 130 152 161 168 128 139 128 144 133 134 124 138 141 141 151 138 136 139 126 141 136 139 146 131 132 135 133 137 146 142 153 145 154
165 150 157 149 156 157 141 156 146 167 135 138 130 155 146 139 117 134 143 133 135 126 132 140 150 146 124 132 129 143 121 121 155 125 127 145 132 136 130 144 142 138 142
179 164 165 162 170 160 166 161 161 158 166 170 183 190 147 115 135 135 134 146 137 134 144 151 137 139 141 152 136 122 143 133 135 133 141 145 147 146 138 148 127 146 136
159 162 160 162 157 154 158 149 161 168 176 217 159 134 124 123 130 132 133 134 154 143 119 134 131 141 131 140 137 129 134 128 120 133 137 135 148 148 130 148 129 141 133
156 145 143 143 140 186 154 136 193 160 164 130 144 143 132 126 144 130 134 121 153 125 129 132 155 147 153 130 150 152 137 120 116 138 135 136 137 127 136 145 143 144 142
143 151 143 146 147 144 145 133 134 143 147 144 164 142 143 134 148 158 143 134 146 101 163 153 118 137 154 150 118 131 151 153 140 153 162 124 126 125 124 140 124 128 134
158 148 150 147 154 145 137 145 145 141 142 143 149 147 148 147 150 148 154 141 140 142 139 121 123 133 122 127 144 115 133 122 110 128 129 145 133 143 127 127 134 159 133
136 146 147 144 143 142 152 149 144 147 141 142 159 142 141 143 151 156 151 147 137 149 157 140 125 132 131 144 134 124 140 124 153 143 141 140 137 123 140 134 129 132 140
139 145 144 149 156 131 134 135 162 141 137 143 140 151 141 151 153 148 140 151 143 130 144 153 133 122 144 100 127 162 132 115 132 148 152 123 157 147 142 138 134 124 142
160 153 159 165 173 152 148 139 159 134 136 141 142 144 149 138 134 134 149 175 133 152 135 138 139 149 140 153 143 127 128 146 136 142 151 126 133 130 146 129 140 132 135
163 166 156 160 180 151 152 152 152 152 150 152 152 146 125 144 126 134 152 126 138 143 143 145 134 142 136 135 132 132 113 133 131 143 140 141 149 152 146 146 152 133 133
148 150 188 156 154 155 147 150 152 138 148 159 156 161 163 184 186 144 148 186 136 136 135 134 138 141 141 141 134 136 141 136 142 140 141 135 132 137 145 132 130 142 137
162 159 166 162 161 161 140 143 157 153 153 149 153 143 151 144 155 158 155 130 147 175 159 135 145 135 135 138 138 139 138 140 148 150 141 143 142 141 141 142 141 145 146
165 168 168 175 172 172 172 165 155 158 152 163 158 157 160 161 154 154 151 162 159 160 154 160 144 148 146 150 160 166 161 161 155 152 148 151 145 145 151 153 152 150 144
198 201 196 210 204 199 194 190 177 177 181 176 168 176 168 154 162 171 159 174 199 149 153 164 154 155 151 154 161 161 159 156 159 160 163 164 167 169 170 162 189 159 157
218 212 206 212 209 202 208 221 207 200 193 191 197 186 190 206 212 203 185 214 189 180 178 168 187 186 175 180 180 169 163 168 173 172 164 167 176 184 191 208 201 202 192
191 228 232 227 215 209 260 255 254 242 233 230 232 226 218 210 194 192 162 166 163 198 197 185 178 177 173 155 164 172 183 181 165 210 215 215 218 211 205 210 206 205 213
213 202 191 190 168 159 192 223 213 210 223 216 216 205 199 185 197 187 185 190 199 185 177 188 195 179 178 193 220 207 194 190 204 205 220 181 187 214 217 213 223 225 217
223 144 154 141 152 176 157 171 209 219 210 208 208 202 204 200 192 191 190 187 180 181 183 189 195 172 179 198 214 202 174 177 190 214 196 193 198 182 179 180 175 193 192
129 164 152 158 191 170 167 178 179 233 223 211 224 217 234 210 236 229 237 241 218 213 226 204 198 205 205 202 208 218 218 213 203 205 221 188 199 205 211 218 220 195 205
175 145 187 162 158 186 207 172 172 162 166 174 227 239 241 228 227 216 219 219 211 208 223 224 214 220 223 221 223 224 225 138 271 236 228 228 224 230 247 228 228 200 217
175 133 165 140 124 159 154 159 192 159 162 177 160 175 170 172 170 196 182 241 232 235 233 220 225 221 206 213 219 146 225 180 135 206 185 282 286 278 205 239 216 209 216
145 176 189 176 141 123 178 156 173 176 175 162 160 159 191 163 177 187 195 182 212 237 231 224 229 225 223 215 225 230 234 270 242 322 252 258 316 311 250 301 264 265 276
166 180 185 160 210 206 170 217 156 206 151 210 169 156 207 157 171 187 200 215 222 241 240 232 232 220 243 204 217 278 259 249 318 326 321 311 301 300 300 292 258 210 205
158 194 188 178 185 170 169 176 170 180 199 173 175 166 168 192 176 182 197 206 184 225 244 246 255 209 231 207 262 266 251 275 249 303 306 318 309 295 290 283 277 268 255
Wind_Speed
17 17 16 20 20 12 13 8 18 7 12 4 6 3 4 19 11 18 14 5 7 14 6 13 17 19 22 28 32 24 32 36 24 32 17 37 35 42 38 45 42 36 39
20 18 21 17 16 20 23 13 9 7 3 8 4 8 4 20 15 20 10 10 3 11 9 10 8 13 22 28 20 30 30 28 28 27 27 30 32 37 34 41 40 39 36
17 17 15 16 16 16 15 18 17 7 11 9 13 11 23 19 12 9 13 9 12 11 4 6 6 4 7 20 20 25 20 21 31 20 26 32 25 32 27 40 37 36 38
12 9 6 4 6 9 5 6 7 8 13 22 28 8 25 10 12 9 12 18 17 9 9 18 6 6 14 13 17 15 19 20 21 20 26 31 31 36 27 34 25 37 33
15 8 7 7 9 11 7 8 13 20 11 14 16 16 8 12 16 11 10 9 9 12 14 5 9 4 2 9 8 11 10 17 21 22 24 21 31 31 23 27 24 34 28
12 15 14 13 13 15 12 9 9 6 9 8 15 16 16 14 20 17 20 9 11 11 14 15 5 5 3 4 11 16 12 17 16 26 11 23 22 18 27 37 32 32 30
5 7 8 7 11 12 11 3 6 6 7 9 12 13 16 17 16 14 26 15 19 15 27 15 18 14 3 2 4 8 20 25 18 38 33 15 17 15 13 33 16 25 28
14 11 14 14 10 11 8 9 11 11 11 12 13 12 15 17 15 19 20 18 17 18 18 13 17 18 21 28 8 3 5 23 7 19 6 21 20 31 16 14 32 49 28
5 7 9 13 12 10 14 14 13 15 13 12 15 14 14 17 18 20 22 23 19 20 23 17 20 20 20 20 24 11 19 18 29 31 24 25 25 15 37 31 18 27 42
7 11 11 16 18 10 12 15 18 17 11 12 14 20 13 17 19 17 19 27 28 24 22 35 22 23 28 4 20 30 32 7 32 33 37 8 38 33 35 40 38 9 55
18 16 17 25 24 16 17 19 21 17 19 16 18 18 20 16 19 21 20 30 28 30 30 30 28 32 34 32 31 34 30 39 39 43 45 18 33 19 44 23 44 31 42
17 21 19 17 28 19 23 23 25 28 30 31 28 24 16 22 21 25 29 28 31 34 36 38 33 34 36 34 36 40 14 44 39 56 50 55 59 60 48 48 57 33 32
11 14 30 20 21 23 24 26 28 15 24 34 33 34 33 35 36 32 33 40 38 37 39 38 42 44 44 44 43 49 48 53 57 58 55 53 39 49 55 37 32 59 47
22 19 27 26 26 27 19 23 30 29 30 31 32 35 38 38 41 40 38 29 42 46 40 39 46 47 46 49 50 52 53 56 63 63 58 62 62 59 58 60 55 66 65
23 28 31 39 37 37 37 34 28 34 33 40 39 43 47 48 48 47 46 50 51 48 46 48 48 53 54 58 61 59 63 65 69 70 71 74 67 65 73 79 76 70 55
37 37 39 42 45 47 47 48 43 45 50 50 49 52 51 50 54 55 38 37 47 52 53 58 54 56 55 59 63 64 63 63 67 67 70 71 76 78 79 79 73 80 80
33 34 35 34 34 35 40 49 51 53 53 55 59 57 59 55 47 45 49 40 45 52 59 63 62 62 64 64 65 65 66 70 73 75 72 75 77 78 80 71 68 64 71
24 31 32 30 31 33 35 40 41 46 50 51 49 45 43 42 48 49 55 56 56 47 49 57 64 66 67 58 65 68 75 75 67 75 73 73 72 71 70 62 61 62 60
27 20 17 15 24 20 22 32 32 35 39 40 39 40 40 46 46 52 57 56 56 57 59 59 64 70 70 71 67 68 70 68 70 69 68 62 61 62 61 60 59 62 62
23 16 11 20 24 31 29 24 34 37 37 40 41 40 41 45 48 52 55 57 61 63 65 66 69 58 59 67 66 68 67 69 74 77 71 70 73 59 58 57 58 60 61
23 9 15 25 27 26 30 31 33 43 43 42 48 47 50 48 49 51 52 55 59 62 64 67 69 69 70 71 70 72 72 76 77 80 81 73 78 78 76 71 75 64 64
30 21 30 10 17 64 36 36 35 35 44 43 43 41 42 45 50 54 56 59 61 63 60 64 69 71 73 72 70 71 74 39 76 80 80 80 76 79 77 76 72 64 67
32 22 28 27 29 17 23 29 61 35 34 48 38 60 48 53 62 56 64 45 54 60 61 64 67 67 69 73 73 43 79 59 38 41 53 63 61 66 59 77 66 65 66
23 46 68 42 27 31 73 22 29 36 32 34 40 44 68 46 62 76 67 66 57 56 60 61 63 66 69 62 66 71 70 65 44 43 42 48 46 47 55 50 64 62 52
40 59 78 28 53 50 41 49 38 60 32 59 41 42 47 49 75 80 82 74 74 58 59 59 63 65 71 66 71 60 62 62 43 40 41 44 45 45 45 49 53 60 61
43 83 82 54 64 32 43 43 38 87 73 42 52 46 64 81 85 78 91 85 70 71 60 63 63 64 64 67 57 54 58 52 54 39 39 35 39 44 45 47 51 52 54
Wind_Direction
133 135 119 170 159 119 133 122 207 105 200 265 226 121 178 125 181 108 131 176 97 69 78 80 66 49 33 33 37 54 33 11 80 39 78 37 48 34 30 26 26 28 22
139 169 146 147 154 175 194 212 227 141 140 266 232 327 201 153 223 121 156 135 279 92 63 29 39 65 58 48 71 26 38 32 19 61 49 48 49 39 37 29 25 26 23
139 154 152 166 172 178 188 197 204 266 218 187 166 174 153 168 329 174 129 188 182 290 181 78 317 107 84 58 64 27 93 89 3 73 55 11 46 32 44 25 27 27 24
164 118 170 167 228 180 215 222 241 245 281 287 280 199 166 5 203 202 210 191 200 228 183 157 138 122 52 30 52 95 8 29 24 23 5 6 1 16 35 21 40 17 22
114 128 146 219 157 154 188 210 254 262 267 280 180 195 253 285 281 261 262 256 223 216 352 323 316 323 98 78 48 87 29 69 87 3 23 16 358 9 41 13 29 19 20
155 148 157 168 190 244 169 194 259 208 187 246 200 213 239 275 219 268 258 312 252 339 289 312 243 286 290 195 331 306 338 101 85 333 348 30 18 53 29 6 8 3 9
171 157 184 198 194 191 175 227 219 218 222 236 226 248 251 259 237 244 236 267 253 350 279 282 349 350 305 63 218 93 276 278 316 298 311 53 59 52 48 359 37 24 7
192 199 196 202 212 224 253 209 223 245 257 257 246 236 256 258 264 262 263 257 274 281 281 331 326 325 344 337 271 75 302 54 62 12 349 313 348 348 32 26 354 331 0
317 237 240 235 246 247 220 221 230 222 236 252 260 274 278 282 278 272 277 280 286 293 283 280 309 306 306 284 304 296 297 347 282 315 329 324 340 9 332 345 341 350 342
295 248 244 241 240 286 280 281 248 269 279 254 261 276 274 284 283 276 282 285 275 296 292 283 281 317 288 94 307 276 317 112 329 300 292 19 298 315 323 330 333 343 323
232 253 244 249 250 255 259 268 260 293 297 274 273 265 267 277 285 288 283 280 285 275 278 286 281 267 280 286 285 322 325 283 307 303 290 351 327 341 306 332 316 324 319
245 242 262 263 254 259 259 264 269 267 277 278 278 279 319 267 312 288 271 313 280 275 278 277 295 282 288 290 298 306 289 311 321 296 304 307 299 297 302 299 295 312 314
314 294 246 266 274 266 278 279 275 294 280 274 281 282 284 278 282 271 281 270 287 287 294 294 289 282 282 282 296 293 283 297 286 297 301 310 314 307 295 312 309 296 301
273 278 270 271 271 268 291 284 273 280 282 288 284 296 288 290 282 278 277 291 268 273 284 287 267 287 293 286 284 281 286 284 277 274 287 280 284 291 292 292 292 289 293
279 274 275 270 272 274 276 281 286 284 287 283 284 282 280 277 278 277 278 274 274 272 269 267 277 271 276 275 272 269 268 270 270 271 278 277 284 285 281 280 283 285 291
261 266 268 266 269 270 271 273 281 282 279 282 282 280 279 279 278 277 289 287 271 286 284 273 275 274 276 277 277 277 278 276 276 275 275 275 275 275 276 280 277 280 281
267 267 272 272 276 279 278 272 273 274 277 279 279 281 280 281 280 280 280 279 271 270 274 277 272 273 270 272 272 274 275 276 275 275 275 275 276 277 277 278 277 277 276
289 275 273 271 279 285 273 274 275 276 277 279 281 283 282 280 278 278 282 281 279 273 266 268 274 277 275 283 279 277 277 277 278 276 275 276 277 274 276 275 276 276 275
276 278 289 289 355 321 324 294 294 292 285 288 287 286 283 282 284 281 283 285 286 283 279 276 280 275 278 284 286 284 281 283 282 280 276 280 280 277 279 278 279 276 277
285 323 329 329 316 341 323 330 330 307 305 302 297 297 293 290 287 285 283 281 281 280 281 282 283 279 280 283 281 280 290 289 284 279 281 280 278 277 278 281 279 280 278
320 280 298 315 328 347 348 8 354 300 311 318 300 303 293 298 289 292 291 290 288 289 287 287 287 290 287 285 285 286 284 280 279 279 279 281 280 277 276 273 275 279 277
318 283 311 305 320 319 314 351 354 341 350 351 301 297 297 303 300 303 301 297 292 290 295 293 293 293 294 294 291 288 287 284 290 277 277 276 276 275 269 274 271 274 273
307 303 291 303 322 322 311 330 316 323 329 333 326 333 333 334 342 333 322 317 317 312 298 295 292 292 294 293 291 282 289 293 284 285 286 272 268 264 273 269 271 272 274
299 300 301 296 303 320 311 303 315 332 318 325 327 322 334 321 327 337 332 312 312 313 310 303 296 294 295 296 294 295 296 294 288 285 282 276 264 257 265 247 259 257 250
301 304 300 286 289 287 296 302 316 310 298 316 320 321 321 316 331 333 335 328 331 305 304 306 302 300 298 296 298 301 297 296 294 287 280 271 266 260 252 246 254 271 273
290 288 291 299 300 288 299 316 312 309 310 303 339 323 328 322 332 327 332 332 310 327 302 300 296 301 303 297 300 304 299 303 295 291 289 275 265 258 253 247 244 244 250